Time,TemperatureF,DewpointF,PressureIn,WindDirection,WindDirectionDegrees,WindSpeedMPH,WindSpeedGustMPH,Humidity,HourlyPrecipIn,Conditions,Clouds,dailyrainin,SolarRadiationWatts/m^2,SoftwareType,DateUTC
2013-08-10 00:09:00,54.5,52.0,30.09,West,265,4.0,-999.0,90,-99.99,,,0.00,0,weatherlink.com 1.10,2013-08-09 23:09:00,
2013-08-10 00:23:00,53.9,51.0,30.10,West,263,0.0,-999.0,91,-99.99,,,0.00,0,weatherlink.com 1.10,2013-08-09 23:23:00,
2013-08-10 00:38:00,53.6,51.0,30.10,SW,234,0.0,-999.0,90,-99.99,,,0.00,0,weatherlink.com 1.10,2013-08-09 23:38:00,
2013-08-10 00:53:00,53.4,51.0,30.09,SW,234,0.0,-999.0,90,-99.99,,,0.00,0,weatherlink.com 1.10,2013-08-09 23:53:00,
2013-08-10 01:08:00,53.1,51.0,30.09,SW,234,0.0,-999.0,91,-99.99,,,0.00,0,weatherlink.com 1.10,2013-08-10 00:08:00,
2013-08-10 01:23:00,53.2,51.0,30.09,SW,234,0.0,-999.0,92,-99.99,,,0.00,0,weatherlink.com 1.10,2013-08-10 00:23:00,
2013-08-10 01:38:00,53.5,51.0,30.09,SW,234,0.0,-999.0,92,-99.99,,,0.00,0,weatherlink.com 1.10,2013-08-10 00:38:00,
2013-08-10 01:53:00,53.5,51.0,30.09,SW,234,0.0,-999.0,92,-99.99,,,0.00,0,weatherlink.com 1.10,2013-08-10 00:53:00,
2013-08-10 02:08:00,53.7,52.0,30.08,SW,234,0.0,-999.0,92,-99.99,,,0.00,0,weatherlink.com 1.10,2013-08-10 01:08:00,
2013-08-10 02:23:00,54.1,52.0,30.08,SW,236,2.0,-999.0,93,-99.99,,,0.00,0,weatherlink.com 1.10,2013-08-10 01:23:00,
2013-08-10 02:38:00,54.2,52.0,30.08,SW,234,3.0,-999.0,92,-99.99,,,0.00,0,weatherlink.com 1.10,2013-08-10 01:38:00,
2013-08-10 02:53:00,54.2,52.0,30.07,SW,231,3.0,-999.0,92,-99.99,,,0.00,0,weatherlink.com 1.10,2013-08-10 01:53:00,
2013-08-10 03:09:00,54.2,52.0,30.07,SW,231,1.0,-999.0,91,-99.99,,,0.00,0,weatherlink.com 1.10,2013-08-10 02:09:00,
2013-08-10 03:24:00,54.1,52.0,30.07,SW,233,3.0,-999.0,91,-99.99,,,0.00,0,weatherlink.com 1.10,2013-08-10 02:24:00,
2013-08-10 03:39:00,53.5,51.0,30.07,SW,230,1.0,-999.0,91,-99.99,,,0.00,0,weatherlink.com 1.10,2013-08-10 02:39:00,
2013-08-10 03:54:00,53.1,51.0,30.07,WSW,249,3.0,-999.0,92,-99.99,,,0.00,0,weatherlink.com 1.10,2013-08-10 02:54:00,
2013-08-10 04:09:00,53.2,51.0,30.07,WSW,250,0.0,-999.0,92,-99.99,,,0.00,0,weatherlink.com 1.10,2013-08-10 03:09:00,
2013-08-10 04:24:00,53.4,51.0,30.07,WSW,250,0.0,-999.0,92,-99.99,,,0.00,0,weatherlink.com 1.10,2013-08-10 03:24:00,
2013-08-10 04:39:00,53.4,51.0,30.07,WSW,250,0.0,-999.0,92,-99.99,,,0.00,0,weatherlink.com 1.10,2013-08-10 03:39:00,
2013-08-10 04:54:00,53.5,51.0,30.07,WSW,250,0.0,-999.0,92,-99.99,,,0.00,0,weatherlink.com 1.10,2013-08-10 03:54:00,
2013-08-10 05:09:00,53.2,51.0,30.07,WSW,250,0.0,-999.0,92,-99.99,,,0.00,0,weatherlink.com 1.10,2013-08-10 04:09:00,
2013-08-10 05:24:00,53.2,51.0,30.07,WSW,250,0.0,-999.0,93,-99.99,,,0.00,0,weatherlink.com 1.10,2013-08-10 04:24:00,
2013-08-10 05:39:00,53.2,51.0,30.07,WSW,250,0.0,-999.0,93,-99.99,,,0.00,0,weatherlink.com 1.10,2013-08-10 04:39:00,
2013-08-10 05:54:00,53.2,51.0,30.07,West,268,3.0,-999.0,92,-99.99,,,0.00,0,weatherlink.com 1.10,2013-08-10 04:54:00,
2013-08-10 06:09:00,53.5,51.0,30.07,SW,236,3.0,-999.0,92,-99.99,,,0.00,9,weatherlink.com 1.10,2013-08-10 05:09:00,
2013-08-10 06:24:00,53.2,51.0,30.06,SSW,198,0.0,-999.0,92,-99.99,,,0.00,16,weatherlink.com 1.10,2013-08-10 05:24:00,
2013-08-10 06:39:00,52.9,51.0,30.06,SSW,202,2.0,-999.0,92,-99.99,,,0.00,28,weatherlink.com 1.10,2013-08-10 05:39:00,
2013-08-10 06:54:00,52.9,51.0,30.07,SSW,202,0.0,-999.0,92,-99.99,,,0.00,42,weatherlink.com 1.10,2013-08-10 05:54:00,
2013-08-10 07:09:00,53.0,51.0,30.07,South,185,5.0,-999.0,92,-99.99,,,0.00,47,weatherlink.com 1.10,2013-08-10 06:09:00,
2013-08-10 07:24:00,53.1,51.0,30.07,South,184,2.0,-999.0,92,-99.99,,,0.00,40,weatherlink.com 1.10,2013-08-10 06:24:00,
2013-08-10 07:39:00,53.4,51.0,30.07,South,184,0.0,-999.0,92,-99.99,,,0.00,76,weatherlink.com 1.10,2013-08-10 06:39:00,
2013-08-10 07:54:00,54.0,52.0,30.07,South,184,1.0,-999.0,91,-99.99,,,0.00,62,weatherlink.com 1.10,2013-08-10 06:54:00,
2013-08-10 08:09:00,55.3,53.0,30.07,SSE,150,4.0,-999.0,91,-99.99,,,0.00,431,weatherlink.com 1.10,2013-08-10 07:09:00,
2013-08-10 08:24:00,57.1,54.0,30.06,South,188,3.0,-999.0,88,-99.99,,,0.00,239,weatherlink.com 1.10,2013-08-10 07:24:00,
2013-08-10 08:39:00,57.3,53.0,30.06,South,187,3.0,-999.0,86,-99.99,,,0.00,149,weatherlink.com 1.10,2013-08-10 07:39:00,
2013-08-10 08:54:00,57.2,53.0,30.07,SSW,211,7.0,-999.0,85,-99.99,,,0.00,137,weatherlink.com 1.10,2013-08-10 07:54:00,
2013-08-10 09:09:00,57.3,53.0,30.07,SSW,203,4.0,-999.0,85,-99.99,,,0.00,229,weatherlink.com 1.10,2013-08-10 08:09:00,
2013-08-10 09:24:00,57.6,53.0,30.07,SSW,198,6.0,-999.0,84,-99.99,,,0.00,230,weatherlink.com 1.10,2013-08-10 08:24:00,
2013-08-10 09:39:00,58.1,53.0,30.07,SW,215,7.0,-999.0,83,-99.99,,,0.00,195,weatherlink.com 1.10,2013-08-10 08:39:00,
2013-08-10 09:54:00,58.2,53.0,30.07,WSW,238,5.0,-999.0,83,-99.99,,,0.00,294,weatherlink.com 1.10,2013-08-10 08:54:00,
2013-08-10 10:09:00,58.9,53.0,30.06,WSW,242,8.0,-999.0,82,-99.99,,,0.00,190,weatherlink.com 1.10,2013-08-10 09:09:00,
2013-08-10 10:24:00,58.5,53.0,30.06,SSE,167,2.0,-999.0,81,-99.99,,,0.00,239,weatherlink.com 1.10,2013-08-10 09:24:00,
2013-08-10 10:39:00,59.1,54.0,30.06,SSW,196,3.0,-999.0,82,-99.99,,,0.00,330,weatherlink.com 1.10,2013-08-10 09:39:00,
2013-08-10 10:54:00,59.5,53.0,30.06,SW,222,3.0,-999.0,79,-99.99,,,0.00,403,weatherlink.com 1.10,2013-08-10 09:54:00,
2013-08-10 11:09:00,59.9,53.0,30.06,WSW,246,6.0,-999.0,77,-99.99,,,0.00,353,weatherlink.com 1.10,2013-08-10 10:09:00,
2013-08-10 11:24:00,59.8,52.0,30.06,SSW,210,3.0,-999.0,74,-99.99,,,0.00,353,weatherlink.com 1.10,2013-08-10 10:24:00,
2013-08-10 11:39:00,60.3,52.0,30.06,SW,215,4.0,-999.0,74,-99.99,,,0.00,408,weatherlink.com 1.10,2013-08-10 10:39:00,
2013-08-10 11:54:00,60.4,52.0,30.06,SW,236,9.0,-999.0,75,-99.99,,,0.00,315,weatherlink.com 1.10,2013-08-10 10:54:00,
2013-08-10 12:09:00,59.6,53.0,30.06,SSW,211,8.0,-999.0,78,-99.99,,,0.00,255,weatherlink.com 1.10,2013-08-10 11:09:00,
2013-08-10 12:24:00,59.8,53.0,30.05,SW,232,2.0,-999.0,78,-99.99,,,0.00,299,weatherlink.com 1.10,2013-08-10 11:24:00,
2013-08-10 12:39:00,60.3,53.0,30.05,South,187,2.0,-999.0,76,-99.99,,,0.00,158,weatherlink.com 1.10,2013-08-10 11:39:00,
2013-08-10 12:54:00,59.9,53.0,30.05,SSE,152,6.0,-999.0,77,-99.99,,,0.00,142,weatherlink.com 1.10,2013-08-10 11:54:00,
2013-08-10 13:09:00,59.9,53.0,30.05,WSW,240,7.0,-999.0,78,-99.99,,,0.00,501,weatherlink.com 1.10,2013-08-10 12:09:00,
2013-08-10 13:24:00,61.0,53.0,30.04,South,173,7.0,-999.0,74,-99.99,,,0.00,471,weatherlink.com 1.10,2013-08-10 12:24:00,
2013-08-10 13:39:00,61.3,53.0,30.05,WSW,245,6.0,-999.0,75,-99.99,,,0.00,330,weatherlink.com 1.10,2013-08-10 12:39:00,
2013-08-10 13:54:00,61.6,54.0,30.04,SW,225,7.0,-999.0,77,-99.99,,,0.00,457,weatherlink.com 1.10,2013-08-10 12:54:00,
2013-08-10 14:10:00,63.1,55.0,30.04,WSW,238,6.0,-999.0,74,-99.99,,,0.00,473,weatherlink.com 1.10,2013-08-10 13:10:00,
2013-08-10 14:25:00,63.2,55.0,30.04,SSW,208,1.0,-999.0,74,-99.99,,,0.00,475,weatherlink.com 1.10,2013-08-10 13:25:00,
2013-08-10 14:40:00,63.2,54.0,30.03,SSW,199,5.0,-999.0,71,-99.99,,,0.00,515,weatherlink.com 1.10,2013-08-10 13:40:00,
2013-08-10 14:55:00,63.5,54.0,30.03,South,174,8.0,-999.0,71,-99.99,,,0.00,515,weatherlink.com 1.10,2013-08-10 13:55:00,
2013-08-10 15:10:00,62.5,53.0,30.03,WSW,240,2.0,-999.0,72,-99.99,,,0.00,329,weatherlink.com 1.10,2013-08-10 14:10:00,
2013-08-10 15:25:00,62.6,54.0,30.02,WSW,255,7.0,-999.0,73,-99.99,,,0.00,330,weatherlink.com 1.10,2013-08-10 14:25:00,
2013-08-10 15:40:00,62.3,53.0,30.02,WSW,241,4.0,-999.0,72,-99.99,,,0.00,287,weatherlink.com 1.10,2013-08-10 14:40:00,
2013-08-10 15:55:00,62.6,53.0,30.02,SSW,197,6.0,-999.0,72,-99.99,,,0.00,295,weatherlink.com 1.10,2013-08-10 14:55:00,
2013-08-10 16:10:00,62.4,54.0,30.02,SSW,195,6.0,-999.0,73,-99.99,,,0.00,265,weatherlink.com 1.10,2013-08-10 15:10:00,
2013-08-10 16:25:00,62.1,54.0,30.01,SSW,196,4.0,-999.0,74,-99.99,,,0.00,225,weatherlink.com 1.10,2013-08-10 15:25:00,
2013-08-10 17:17:00,60.0,53.0,30.00,SW,236,8.0,-999.0,79,-99.99,,,0.00,107,weatherlink.com 1.10,2013-08-10 16:17:00,
2013-08-10 17:25:00,59.4,54.0,30.00,SW,217,2.0,-999.0,83,-99.99,,,0.00,134,weatherlink.com 1.10,2013-08-10 16:25:00,
2013-08-10 17:40:00,59.6,56.0,29.99,South,172,4.0,-999.0,86,-99.99,,,0.00,545,weatherlink.com 1.10,2013-08-10 16:40:00,
2013-08-10 17:55:00,60.7,55.0,29.99,South,186,6.0,-999.0,81,-99.99,,,0.00,230,weatherlink.com 1.10,2013-08-10 16:55:00,
2013-08-10 18:10:00,60.8,54.0,29.98,SW,227,2.0,-999.0,79,-99.99,,,0.00,172,weatherlink.com 1.10,2013-08-10 17:10:00,
2013-08-10 18:25:00,60.6,54.0,29.98,SSW,211,7.0,-999.0,80,-99.99,,,0.00,137,weatherlink.com 1.10,2013-08-10 17:25:00,
2013-08-10 18:40:00,61.2,55.0,29.98,South,183,5.0,-999.0,80,-99.99,,,0.00,148,weatherlink.com 1.10,2013-08-10 17:40:00,
2013-08-10 18:55:00,60.9,55.0,29.98,WSW,253,8.0,-999.0,82,-99.99,,,0.00,116,weatherlink.com 1.10,2013-08-10 17:55:00,
2013-08-10 19:10:00,60.5,55.0,29.97,SSW,212,5.0,-999.0,82,-99.99,,,0.00,81,weatherlink.com 1.10,2013-08-10 18:10:00,
2013-08-10 19:25:00,60.3,55.0,29.97,SW,219,2.0,-999.0,82,-99.99,,,0.00,47,weatherlink.com 1.10,2013-08-10 18:25:00,
2013-08-10 19:41:00,60.1,55.0,29.96,SW,214,1.0,-999.0,83,-99.99,,,0.00,26,weatherlink.com 1.10,2013-08-10 18:41:00,
2013-08-10 19:55:00,59.9,55.0,29.97,South,178,0.0,-999.0,83,-99.99,,,0.00,16,weatherlink.com 1.10,2013-08-10 18:55:00,
2013-08-10 20:11:00,59.6,55.0,29.96,South,190,1.0,-999.0,85,-99.99,,,0.00,12,weatherlink.com 1.10,2013-08-10 19:11:00,
2013-08-10 20:26:00,58.4,53.0,29.96,SSW,200,0.0,-999.0,83,-99.99,,,0.00,0,weatherlink.com 1.10,2013-08-10 19:26:00,
2013-08-10 20:41:00,57.3,54.0,29.96,SW,217,0.0,-999.0,87,-99.99,,,0.01,0,weatherlink.com 1.10,2013-08-10 19:41:00,
2013-08-10 20:56:00,56.3,53.0,29.96,SW,221,3.0,-999.0,89,-99.99,,,0.01,0,weatherlink.com 1.10,2013-08-10 19:56:00,
2013-08-10 21:11:00,55.5,53.0,29.97,West,269,5.0,-999.0,91,-99.99,,,0.01,0,weatherlink.com 1.10,2013-08-10 20:11:00,
2013-08-10 21:41:00,53.4,51.0,29.96,WNW,288,7.0,-999.0,92,-99.99,,,0.02,0,weatherlink.com 1.10,2013-08-10 20:41:00,
2013-08-10 21:56:00,52.9,51.0,29.96,West,264,2.0,-999.0,93,-99.99,,,0.02,0,weatherlink.com 1.10,2013-08-10 20:56:00,
2013-08-10 22:11:00,52.9,51.0,29.95,West,264,0.0,-999.0,94,-99.99,,,0.02,0,weatherlink.com 1.10,2013-08-10 21:11:00,
2013-08-10 22:26:00,53.1,52.0,29.95,WSW,246,1.0,-999.0,94,-99.99,,,0.02,0,weatherlink.com 1.10,2013-08-10 21:26:00,
2013-08-10 22:41:00,53.4,52.0,29.95,SSW,200,0.0,-999.0,94,-99.99,,,0.02,0,weatherlink.com 1.10,2013-08-10 21:41:00,
2013-08-10 22:56:00,53.6,52.0,29.95,SSW,200,2.0,-999.0,94,-99.99,,,0.02,0,weatherlink.com 1.10,2013-08-10 21:56:00,
2013-08-10 23:11:00,53.6,52.0,29.95,SSW,200,0.0,-999.0,94,-99.99,,,0.02,0,weatherlink.com 1.10,2013-08-10 22:11:00,
2013-08-10 23:26:00,53.5,52.0,29.95,SSW,200,0.0,-999.0,94,-99.99,,,0.03,0,weatherlink.com 1.10,2013-08-10 22:26:00,
2013-08-10 23:41:00,53.4,52.0,29.94,SSW,200,0.0,-999.0,94,-99.99,,,0.03,0,weatherlink.com 1.10,2013-08-10 22:41:00,
2013-08-10 23:56:00,53.1,52.0,29.94,SSW,200,0.0,-999.0,94,-99.99,,,0.03,0,weatherlink.com 1.10,2013-08-10 22:56:00,